Terminal Aerodrome Forecast
Issued by NWS Duluth, MN

Home | Current Version | Previous Version | Text Only | Print | Product List | Glossary On
Versions: 1 2 3 4 5 6 7 8 9 10 11 12 13 14 15 16 17 18 19 20 21 22 23 24 25 26 27 28 29 30 31 32 33 34 35 36 37 38 39 40 41 42 43 44 45 46
000
FTUS43 KDLH 202300
TAFDLH
TAF
KDLH 202337Z 2100/2124 10005KT P6SM BKN035
     FM210300 08006KT P6SM SCT012 BKN050
     FM210600 VRB04KT 3SM BR SCT008 OVC015
     FM210800 VRB03KT 1 1/2SM BR SCT004 OVC008
     FM211500 08009KT 5SM BR VCSH OVC015 PROB30 2118/2124 -TSRA
      BKN050CB=

USA.gov is the U.S. government's official web portal to all federal, state and local government web resources and services.